Starlink 4108

operational
NORAD ID: 52834 Int'l Des: 2022-062 Owner: SPXS Country: US Constellation: starlink
LEOCIRCULAR

关于 Starlink 4108

正在加载描述...

实时位置

正在加载3D地球...

即将过境

高度历史

Altitude vs Time

uPlot chart will show altitude changes over time

两行轨道根数

1 52834U 22062E 25351.29226050 .00001358 00000-0 10338-3 0 9991
2 52834 53.2169 44.0181 0001438 94.5139 265.6018 15.08844836193340
Epoch: Dec 17, 2025 • Age: 13 hours

当前状态

高度 545.2 km
速度 7.60 km/s
星下点 52.91°N, 112.97°E
发射日期 Jun 17, 2022
运行时间 3.5 years
类型 internet

技术详情

分类 Payload
质量 297.00 kg
干质量 275.00 kg
总质量 297.00 kg
长度 0.20 m
直径 2.80 m
跨度 9.00 m
形状 Box + pan
制造商 SPXS
平台类型 Starlink
阶段状态 In Orbit
所有者/国家 SPXS/US

大型星座

Loading constellations...